Weather History for Sheridan, WY

Change the Weather History Date:

Saturday, April 27, 2013

  Actual Average Record
Temperature  
Mean Temperature 57 °F 47 °F  
Max Temperature 76 °F 61 °F 83 °F (1987)
Min Temperature 37 °F 33 °F 12 °F (1918)
Degree Days  
Heating Degree Days 8 18  
Month to date heating degree days 758 589  
Since 1 July heating degree days 7037 7048  
Cooling Degree Days 0 0  
Month to date cooling degree days 0 0  
Year to date cooling degree days 0 0  
Growing Degree Days 6 (Base 50)    
Moisture  
Dew Point 29 °F    
Average Humidity 38    
Maximum Humidity 62    
Minimum Humidity 14    
Precipitation  
Precipitation 0.00 in 0.07 in 2.76 in (1963)
Month to date precipitation 1.99 1.38  
Year to date precipitation 4.01 3.46  
Sea Level Pressure  
Sea Level Pressure 29.94 in    
Wind  
Wind Speed 7 mph (West)    
Max Wind Speed 20 mph    
Max Gust Speed 29 mph    
Visibility 10 miles    
Events      
T = Trace of Precipitation, MM = Missing Value Source: NWS Daily Summary

Daily Weather History Graph

Daily Weather History Graph

Search for Another Location

Airport:

Trip Planner

Search our weather history database for the weather conditions in past years. The results will help you decide how hot, cold, wet, or windy it might be!

Date:

Astronomy

Apr. 27, 2013 Rise Set
Actual Time 6:03 AM MDT 8:08 PM MDT
Civil Twilight 5:31 AM MDT 8:40 PM MDT
Nautical Twilight 4:52 AM MDT 9:19 PM MDT
Astronomical Twilight 4:09 AM MDT 10:02 PM MDT
Moon 10:45 PM MDT (4/27) 7:20 AM MDT (4/27)
Length of Visible Light 15h 08m
Length of Day
14h 05m
Waning Gibbous, 95% of the Moon is Illuminated
Apr 27
Waning Gibbous
May 2
Last Quarter
May 9
New
May 17
First Quarter
May 24
Full

Hourly Weather History & Observations

Time (MDT) Temp. Windchill Dew Point Humidity Pressure Visibility Wind Dir Wind Speed Gust Speed Precip Events Conditions
12:53 AM 46.0 °F 42.5 °F 30.0 °F 54% 30.05 in 10.0 mi SSE 6.9 mph - N/A   Clear
1:53 AM 46.9 °F - 28.0 °F 48% 30.04 in 10.0 mi NNW 3.5 mph - N/A   Clear
2:53 AM 48.9 °F - 28.9 °F 46% 30.03 in 10.0 mi WNW 11.5 mph - N/A   Clear
3:05 AM 51.8 °F - 28.4 °F 41% 30.08 in 10.0 mi West 12.7 mph - N/A   Clear
3:53 AM 46.0 °F 44.8 °F 28.9 °F 51% 30.04 in 10.0 mi Variable 3.5 mph - N/A   Clear
4:53 AM 45.0 °F 42.6 °F 28.0 °F 52% 30.04 in 10.0 mi SE 4.6 mph - N/A   Clear
5:53 AM 41.0 °F - 28.0 °F 60% 30.05 in 10.0 mi Calm Calm - N/A   Clear
6:53 AM 42.1 °F 39.2 °F 30.9 °F 65% 30.06 in 10.0 mi SSW 4.6 mph - N/A   Clear
7:53 AM 53.1 °F - 30.0 °F 41% 30.07 in 10.0 mi Calm Calm - N/A   Clear
8:53 AM 60.1 °F - 30.0 °F 32% 30.05 in 10.0 mi Calm Calm - N/A   Clear
9:53 AM 66.9 °F - 30.9 °F 26% 30.02 in 10.0 mi NE 5.8 mph - N/A   Clear
10:53 AM 69.1 °F - 28.0 °F 22% 30.01 in 10.0 mi Calm Calm - N/A   Clear
11:53 AM 72.0 °F - 28.9 °F 20% 29.98 in 10.0 mi ENE 4.6 mph - N/A   Clear
12:53 PM 72.0 °F - 25.0 °F 17% 29.94 in 10.0 mi SSE 6.9 mph - N/A   Clear
1:53 PM 75.0 °F - 23.0 °F 14% 29.90 in 10.0 mi NNW 8.1 mph - N/A   Clear
2:53 PM 73.9 °F - 27.0 °F 18% 29.88 in 10.0 mi West 16.1 mph 21.9 mph N/A   Clear
3:53 PM 75.0 °F - 27.0 °F 17% 29.86 in 10.0 mi West 10.4 mph 23.0 mph N/A   Clear
4:53 PM 75.0 °F - 28.0 °F 18% 29.83 in 10.0 mi NW 9.2 mph - N/A   Clear
5:53 PM 72.0 °F - 27.0 °F 19% 29.83 in 10.0 mi West 11.5 mph - N/A   Clear
6:53 PM 70.0 °F - 30.9 °F 24% 29.83 in 10.0 mi West 10.4 mph - N/A   Clear
7:53 PM 62.1 °F - 30.9 °F 31% 29.81 in 10.0 mi WSW 8.1 mph - N/A   Clear
8:53 PM 57.0 °F - 30.9 °F 37% 29.81 in 10.0 mi WSW 9.2 mph - N/A   Clear
9:53 PM 57.9 °F - 30.9 °F 36% 29.80 in 10.0 mi WNW 8.1 mph - N/A   Clear
10:53 PM 64.0 °F - 24.1 °F 22% 29.77 in 10.0 mi NW 12.7 mph 18.4 mph N/A   Clear
11:53 PM 57.0 °F - 30.0 °F 36% 29.76 in 10.0 mi West 12.7 mph - N/A   Clear